Lima, OH

4:20 PM EDT on June 26, 2017 (GMT -0400)
Lima Allen County

Weather History for KAOH - May, 2013

Change the Weather History Date:

Tuesday, May 7, 2013

  Actual Average (KFDY) Record (KFDY)
Temperature  
Mean Temperature 62 °F -  
Max Temperature 73 °F 67 °F 87 °F (2015)
Min Temperature 51 °F 45 °F 28 °F (1974)
Degree Days  
Heating Degree Days 3    
Growing Degree Days 12 (Base 50)    
Moisture  
Dew Point 52 °F    
Average Humidity 68    
Maximum Humidity 86    
Minimum Humidity 51    
Precipitation  
Precipitation 0.00 in - - ()
Sea Level Pressure  
Sea Level Pressure 29.99 in    
Wind  
Wind Speed 5 mph (NE)    
Max Wind Speed 14 mph    
Max Gust Speed 21 mph    
Visibility 10 miles    
Events      
Averages and records for this station are not official NWS values.
T = Trace of Precipitation, MM = Missing Value Source: NWS Daily Summary

Daily Weather History Graph

Daily Weather History Graph

Search for Another Location

Airport or City:

Trip Planner

Search our weather history database for the weather conditions in past years. The results will help you decide how hot, cold, wet, or windy it might be!

Date:

Astronomy

May. 07, 2013 Rise Set
Actual Time 6:27 AM EDT 8:38 PM EDT
Civil Twilight 5:56 AM EDT 9:09 PM EDT
Nautical Twilight 5:19 AM EDT 9:46 PM EDT
Astronomical Twilight 4:38 AM EDT 10:27 PM EDT
Moon 5:01 AM EDT (5/7) 6:36 PM EDT (5/7)
Length of Visible Light 15h 12m
Length of Day
14h 11m
Waning Crescent, 5% of the Moon is Illuminated
May 7
Waning Crescent
May 9
New
May 18
First Quarter
May 25
Full
May 31
Last Quarter

Hourly Weather History & Observations

Time (EDT) Temp. Dew Point Humidity Pressure Visibility Wind Dir Wind Speed Gust Speed Precip Events Conditions
12:53 AM 59.0 °F 53.1 °F 81% 29.99 in 10.0 mi Calm Calm - N/A   Overcast
1:53 AM 57.0 °F 52.0 °F 83% 29.99 in 10.0 mi NNE 3.5 mph - N/A   Clear
2:53 AM 55.0 °F 50.0 °F 83% 29.97 in 10.0 mi NE 3.5 mph - N/A   Clear
3:53 AM 54.0 °F 48.9 °F 83% 29.97 in 10.0 mi NE 4.6 mph - N/A   Clear
4:53 AM 53.1 °F 48.0 °F 83% 29.98 in 10.0 mi ENE 3.5 mph - N/A   Scattered Clouds
5:53 AM 51.1 °F 46.9 °F 86% 29.99 in 10.0 mi Calm Calm - N/A   Partly Cloudy
6:53 AM 53.1 °F 48.9 °F 86% 29.99 in 10.0 mi NNE 3.5 mph - N/A   Mostly Cloudy
7:53 AM 55.9 °F 50.0 °F 80% 30.00 in 10.0 mi NNE 4.6 mph - N/A   Overcast
8:53 AM 60.1 °F 52.0 °F 75% 30.01 in 10.0 mi ENE 5.8 mph - N/A   Partly Cloudy
9:53 AM 63.0 °F 53.1 °F 70% 30.01 in 10.0 mi NE 6.9 mph - N/A   Partly Cloudy
10:53 AM 64.9 °F 53.1 °F 65% 30.01 in 10.0 mi ENE 8.1 mph - N/A   Clear
11:29 AM 68.0 °F 53.6 °F 60% 30.01 in 10.0 mi NE 8.1 mph 16.1 mph N/A   Mostly Cloudy
11:38 AM 66.2 °F 53.6 °F 64% 30.01 in 10.0 mi NE 8.1 mph - N/A   Scattered Clouds
11:53 AM 68.0 °F 53.1 °F 59% 30.00 in 10.0 mi NNE 8.1 mph - N/A   Scattered Clouds
12:53 PM 70.0 °F 53.1 °F 55% 29.99 in 10.0 mi NE 11.5 mph - N/A   Mostly Cloudy
1:53 PM 73.0 °F 54.0 °F 51% 29.98 in 10.0 mi NE 10.4 mph - N/A   Mostly Cloudy
2:53 PM 71.1 °F 53.1 °F 53% 29.97 in 10.0 mi ENE 13.8 mph 20.7 mph N/A   Mostly Cloudy
3:53 PM 72.0 °F 54.0 °F 53% 29.95 in 10.0 mi NE 11.5 mph - N/A   Mostly Cloudy
4:53 PM 71.1 °F 53.1 °F 53% 29.95 in 10.0 mi NE 12.7 mph - N/A   Overcast
6:53 PM 71.1 °F 53.1 °F 53% 29.95 in 10.0 mi NE 6.9 mph - N/A   Mostly Cloudy
7:53 PM 70.0 °F 53.1 °F 55% 29.95 in 10.0 mi NE 5.8 mph - N/A   Overcast
8:53 PM 66.9 °F 53.1 °F 61% 29.97 in 10.0 mi NE 8.1 mph - N/A   Mostly Cloudy
9:53 PM 64.0 °F 53.1 °F 67% 29.99 in 10.0 mi East 5.8 mph - N/A   Overcast
10:53 PM 63.0 °F 53.1 °F 70% 30.00 in 10.0 mi East 3.5 mph - N/A   Overcast
11:53 PM 61.0 °F 54.0 °F 78% 30.00 in 10.0 mi Calm Calm - N/A   Overcast